• In Russia
  • List of Countries
  • For 7 days
  • Water Temperature
  • Satellite Maps
  • Weather Map
  • Weather Widgets
  • user-avatar
    Login

    Hourly Weather Neuquén

    Today, 18 October, Wednesday

    Time Temperature Precipitation Wind Pressure Humidity
    00:00 +18°C° 0 mm 7 mps 730 mmHg 33%
    01:00 +17°C° 0 mm 7 mps 730 mmHg 38%
    02:00 +16°C° 0 mm 7 mps 730 mmHg 41%
    03:00 +15°C° 0 mm 7 mps 730 mmHg 44%
    04:00 +14°C° 0 mm 7 mps 730 mmHg 47%
    05:00 +15°C° 0 mm 8 mps 731 mmHg 43%
    06:00 +15°C° 0 mm 9 mps 732 mmHg 38%
    07:00 +16°C° 0 mm 10 mps 733 mmHg 34%
    08:00 +16°C° 0 mm 11 mps 733 mmHg 30%
    09:00 +17°C° 0 mm 11 mps 734 mmHg 26%
    10:00 +18°C° 0 mm 11 mps 734 mmHg 23%
    11:00 +19°C° 0 mm 11 mps 734 mmHg 21%
    12:00 +19°C° 0 mm 11 mps 734 mmHg 18%
    13:00 +21°C° 0 mm 11 mps 734 mmHg 16%
    14:00 +21°C° 0 mm 11 mps 734 mmHg 16%
    15:00 +21°C° 0 mm 10 mps 734 mmHg 16%
    16:00 +21°C° 0 mm 10 mps 734 mmHg 16%
    17:00 +19°C° 0 mm 9 mps 735 mmHg 17%
    18:00 +18°C° 0 mm 9 mps 735 mmHg 19%
    19:00 +17°C° 0 mm 8 mps 735 mmHg 21%
    20:00 +16°C° 0 mm 8 mps 736 mmHg 26%
    21:00 +15°C° 0 mm 8 mps 736 mmHg 31%
    22:00 +13°C° 0 mm 8 mps 736 mmHg 35%
    23:00 +14°C° 0 mm 7 mps 736 mmHg 37%

    Tomorrow, 19 October, Thursday

    Time Temperature Precipitation Wind Pressure Humidity
    00:00 +12°C° 0 mm 7 mps 736 mmHg 39%
    01:00 +11°C° 0 mm 6 mps 736 mmHg 40%
    02:00 +11°C° 0 mm 6 mps 736 mmHg 40%
    03:00 +10°C° 0 mm 6 mps 736 mmHg 40%
    04:00 +10°C° 0 mm 5 mps 735 mmHg 39%
    05:00 +12°C° 0 mm 5 mps 735 mmHg 34%
    06:00 +13°C° 0 mm 6 mps 735 mmHg 29%
    07:00 +14°C° 0 mm 6 mps 735 mmHg 25%
    08:00 +15°C° 0 mm 5 mps 735 mmHg 23%
    09:00 +16°C° 0 mm 5 mps 734 mmHg 21%
    10:00 +19°C° 0 mm 4 mps 734 mmHg 19%
    11:00 +20°C° 0 mm 4 mps 733 mmHg 18%
    12:00 +20°C° 0 mm 4 mps 732 mmHg 18%
    13:00 +21°C° 0 mm 4 mps 732 mmHg 17%
    14:00 +21°C° 0 mm 4 mps 731 mmHg 17%
    15:00 +21°C° 0 mm 4 mps 730 mmHg 17%
    16:00 +21°C° 0 mm 4 mps 730 mmHg 17%
    17:00 +21°C° 0 mm 3 mps 730 mmHg 18%
    18:00 +20°C° 0 mm 3 mps 730 mmHg 19%
    19:00 +19°C° 0 mm 3 mps 730 mmHg 20%
    20:00 +19°C° 0 mm 4 mps 730 mmHg 21%
    21:00 +17°C° 0 mm 5 mps 730 mmHg 22%
    22:00 +16°C° 0 mm 6 mps 730 mmHg 23%
    23:00 +16°C° 0 mm 6 mps 730 mmHg 25%

    Day after tomorrow, 20 October, Friday

    Time Temperature Precipitation Wind Pressure Humidity
    00:00 +15°C° 0 mm 7 mps 730 mmHg 27%
    01:00 +14°C° 0 mm 7 mps 730 mmHg 29%
    02:00 +13°C° 0 mm 8 mps 730 mmHg 30%
    03:00 +12°C° 0 mm 8 mps 730 mmHg 32%
    04:00 +11°C° 0 mm 8 mps 730 mmHg 33%
    05:00 +11°C° 0 mm 9 mps 731 mmHg 34%
    06:00 +11°C° 0 mm 10 mps 732 mmHg 34%
    07:00 +11°C° 0 mm 11 mps 732 mmHg 35%
    08:00 +13°C° 0 mm 10 mps 733 mmHg 34%
    09:00 +14°C° 0 mm 10 mps 733 mmHg 33%
    10:00 +16°C° 0 mm 9 mps 734 mmHg 31%
    11:00 +16°C° 0 mm 8 mps 734 mmHg 31%
    12:00 +17°C° 0 mm 7 mps 734 mmHg 31%
    13:00 +17°C° 0 mm 6 mps 734 mmHg 32%
    14:00 +17°C° 0 mm 6 mps 734 mmHg 29%
    15:00 +17°C° 0 mm 6 mps 734 mmHg 25%
    16:00 +19°C° 0 mm 6 mps 734 mmHg 22%
    17:00 +17°C° 0 mm 5 mps 734 mmHg 22%
    18:00 +16°C° 0 mm 5 mps 735 mmHg 22%
    19:00 +17°C° 0 mm 4 mps 736 mmHg 22%
    20:00 +15°C° 0 mm 5 mps 736 mmHg 25%
    21:00 +14°C° 0 mm 6 mps 737 mmHg 27%
    22:00 +14°C° 0 mm 6 mps 737 mmHg 29%
    23:00 +12°C° 0 mm 7 mps 737 mmHg 31%

    21 October, Saturday

    Time Temperature Precipitation Wind Pressure Humidity
    00:00 +11°C° 0 mm 7 mps 737 mmHg 34%
    01:00 +11°C° 0 mm 7 mps 737 mmHg 36%
    02:00 +10°C° 0 mm 7 mps 738 mmHg 37%
    03:00 +10°C° 0 mm 6 mps 738 mmHg 38%
    04:00 +10°C° 0 mm 6 mps 739 mmHg 39%
    05:00 +11°C° 0 mm 6 mps 739 mmHg 37%
    06:00 +12°C° 0 mm 7 mps 740 mmHg 36%
    07:00 +12°C° 0 mm 7 mps 741 mmHg 34%
    08:00 +14°C° 0 mm 6 mps 741 mmHg 31%
    09:00 +15°C° 0 mm 5 mps 741 mmHg 28%
    10:00 +17°C° 0 mm 4 mps 741 mmHg 26%
    11:00 +18°C° 0 mm 3 mps 741 mmHg 23%
    12:00 +19°C° 0 mm 3 mps 740 mmHg 20%
    13:00 +19°C° 0 mm 2 mps 740 mmHg 17%
    14:00 +20°C° 0 mm 2 mps 740 mmHg 16%
    15:00 +20°C° 0 mm 2 mps 740 mmHg 15%
    16:00 +20°C° 0 mm 2 mps 739 mmHg 14%
    17:00 +19°C° 0 mm 2 mps 740 mmHg 15%
    18:00 +19°C° 0 mm 2 mps 740 mmHg 15%
    19:00 +18°C° 0 mm 3 mps 740 mmHg 16%
    20:00 +17°C° 0 mm 3 mps 740 mmHg 17%
    21:00 +17°C° 0 mm 3 mps 740 mmHg 18%
    22:00 +15°C° 0 mm 4 mps 740 mmHg 18%
    23:00 +15°C° 0 mm 4 mps 740 mmHg 19%

    22 October, Sunday

    Time Temperature Precipitation Wind Pressure Humidity
    00:00 +14°C° 0 mm 4 mps 739 mmHg 20%
    01:00 +13°C° 0 mm 5 mps 739 mmHg 20%
    02:00 +13°C° 0 mm 5 mps 739 mmHg 24%
    03:00 +13°C° 0 mm 5 mps 738 mmHg 28%
    04:00 +12°C° 0 mm 5 mps 738 mmHg 32%
    05:00 +13°C° 0 mm 6 mps 738 mmHg 31%
    06:00 +15°C° 0 mm 7 mps 738 mmHg 31%
    07:00 +16°C° 0 mm 8 mps 738 mmHg 31%
    08:00 +18°C° 0 mm 9 mps 737 mmHg 27%
    09:00 +21°C° 0 mm 9 mps 736 mmHg 24%
    10:00 +22°C° 0 mm 9 mps 736 mmHg 21%
    11:00 +23°C° 0 mm 9 mps 735 mmHg 19%
    12:00 +24°C° 0 mm 8 mps 734 mmHg 18%
    13:00 +26°C° 0 mm 8 mps 733 mmHg 16%
    14:00 +27°C° 0 mm 7 mps 732 mmHg 15%
    15:00 +27°C° 0 mm 7 mps 731 mmHg 15%
    16:00 +28°C° 0 mm 6 mps 731 mmHg 14%
    17:00 +27°C° 0 mm 6 mps 730 mmHg 15%
    18:00 +25°C° 0 mm 5 mps 730 mmHg 16%
    19:00 +23°C° 0 mm 5 mps 730 mmHg 18%
    20:00 +22°C° 0 mm 5 mps 731 mmHg 19%
    21:00 +21°C° 0 mm 5 mps 731 mmHg 21%
    22:00 +21°C° 0 mm 5 mps 731 mmHg 23%
    23:00 +20°C° 0 mm 5 mps 731 mmHg 25%

    23 October, Monday

    Time Temperature Precipitation Wind Pressure Humidity
    00:00 +19°C° 0 mm 6 mps 730 mmHg 27%
    01:00 +17°C° 0 mm 7 mps 730 mmHg 29%
    02:00 +17°C° 0 mm 7 mps 730 mmHg 31%
    03:00 +16°C° 0 mm 7 mps 730 mmHg 32%
    04:00 +15°C° 0 mm 7 mps 731 mmHg 34%
    05:00 +16°C° 0 mm 7 mps 731 mmHg 32%
    06:00 +17°C° 0 mm 8 mps 731 mmHg 29%
    07:00 +18°C° 0 mm 8 mps 732 mmHg 27%
    08:00 +21°C° 0 mm 8 mps 731 mmHg 25%
    09:00 +23°C° 0 mm 8 mps 731 mmHg 22%
    10:00 +26°C° 0 mm 8 mps 731 mmHg 20%
    11:00 +27°C° 0 mm 8 mps 730 mmHg 19%
    12:00 +28°C° 0 mm 8 mps 730 mmHg 18%
    13:00 +29°C° 0 mm 7 mps 729 mmHg 17%
    14:00 +28°C° 0 mm 8 mps 729 mmHg 18%
    15:00 +28°C° 0 mm 9 mps 729 mmHg 19%
    16:00 +28°C° 0 mm 10 mps 729 mmHg 20%
    17:00 +27°C° 0 mm 9 mps 729 mmHg 23%
    18:00 +24°C° 0 mm 9 mps 730 mmHg 26%
    19:00 +23°C° 0 mm 9 mps 730 mmHg 30%
    20:00 +22°C° 0 mm 8 mps 730 mmHg 33%
    21:00 +21°C° 0 mm 8 mps 731 mmHg 37%
    22:00 +20°C° 0 mm 7 mps 731 mmHg 41%
    23:00 +18°C° 0 mm 7 mps 731 mmHg 43%
    Show more